| time (UTC) | temp F | wind direction | speed knots | gust knots | rain 1hr in | rain 24hr in | rain mn in | humidity % | barometer mb |
| 20260506034504 | 74 | 286 | 5.2 | 7.0 | 0.00 | 0.00 | 0.00 | 35 | 996.6 |
| 20260506033004 | 74 | 294 | 3.5 | 7.8 | 0.00 | 0.00 | 0.00 | 35 | 996.2 |
| 20260506031505 | 74 | 307 | 6.1 | 10.4 | 0.00 | 0.00 | 0.00 | 35 | 996.0 |
| 20260506030001 | 74 | 312 | 10.4 | 13.9 | 0.00 | 0.00 | 0.00 | 34 | 995.8 |
| 20260506024605 | 75 | 309 | 10.4 | 13.9 | 0.00 | 0.00 | 0.00 | 33 | 995.6 |
| 20260506023109 | 76 | 319 | 10.4 | 13.0 | 0.00 | 0.00 | 0.00 | 32 | 995.5 |
| 20260506021617 | 77 | 329 | 7.8 | 10.4 | 0.00 | 0.00 | 0.00 | 30 | 995.5 |
| 20260506020057 | 78 | 319 | 2.6 | 5.2 | 0.00 | 0.00 | 0.00 | 28 | 995.4 |
| 20260506014504 | 79 | 324 | 3.5 | 7.8 | 0.00 | 0.00 | 0.00 | 27 | 995.2 |
| 20260506013003 | 80 | 334 | 1.7 | 3.5 | 0.00 | 0.00 | 0.00 | 26 | 995.1 |
| 20260506011503 | 80 | 195 | 2.6 | 7.8 | 0.00 | 0.00 | 0.00 | 25 | 994.8 |
| 20260506010003 | 80 | 186 | 6.1 | 7.0 | 0.00 | 0.00 | 0.00 | 26 | 994.8 |
| 20260506004553 | 80 | 182 | 7.8 | 8.7 | 0.00 | 0.00 | 0.00 | 25 | 994.9 |
| 20260506003054 | 81 | 209 | 7.0 | 12.2 | 0.00 | 0.00 | 0.00 | 25 | 994.8 |
| 20260506001554 | 81 | 223 | 8.7 | 13.9 | 0.00 | 0.00 | 0.00 | 25 | 994.8 |
| 20260506000050 | 81 | 221 | 8.7 | 15.6 | 0.00 | 0.00 | 0.00 | 24 | 994.8 |
| 20260505234559 | 81 | 208 | 4.3 | 9.6 | 0.00 | 0.00 | 0.00 | 25 | 995.0 |
| 20260505233104 | 80 | 280 | 6.1 | 12.2 | 0.00 | 0.00 | 0.00 | 25 | 995.1 |
| 20260505231611 | 80 | 259 | 13.9 | 17.4 | 0.00 | 0.00 | 0.00 | 25 | 995.3 |
| 20260505230055 | 79 | 232 | 8.7 | 13.0 | 0.00 | 0.00 | 0.00 | 25 | 995.4 |
| 20260505224544 | 79 | 259 | 12.2 | 19.1 | 0.00 | 0.00 | 0.00 | 26 | 995.6 |
| 20260505223043 | 79 | 250 | 12.2 | 17.4 | 0.00 | 0.00 | 0.00 | 26 | 996.0 |
| 20260505221545 | 78 | 267 | 16.5 | 21.7 | 0.00 | 0.00 | 0.00 | 26 | 995.9 |
| 20260505220045 | 77 | 266 | 17.4 | 22.6 | 0.00 | 0.00 | 0.00 | 26 | 996.1 |
| 20260505214556 | 77 | 288 | 13.9 | 22.6 | 0.00 | 0.00 | 0.00 | 26 | 996.5 |
| 20260505213047 | 77 | 261 | 19.1 | 26.9 | 0.00 | 0.00 | 0.00 | 25 | 996.6 |
| 20260505211546 | 77 | 292 | 21.7 | 28.7 | 0.00 | 0.00 | 0.00 | 25 | 996.9 |
| 20260505210047 | 78 | 284 | 23.5 | 27.8 | 0.00 | 0.00 | 0.00 | 24 | 996.7 |
| 20260505204556 | 79 | 279 | 17.4 | 25.2 | 0.00 | 0.00 | 0.00 | 24 | 997.0 |
| 20260505203114 | 79 | 280 | 18.2 | 28.7 | 0.00 | 0.00 | 0.00 | 24 | 997.0 |
| 20260505201600 | 79 | 270 | 15.6 | 26.9 | 0.00 | 0.00 | 0.00 | 26 | 996.9 |
| 20260505200054 | 78 | 279 | 18.2 | 25.2 | 0.00 | 0.00 | 0.00 | 26 | 997.0 |
| 20260505194557 | 78 | 271 | 18.2 | 23.5 | 0.00 | 0.00 | 0.00 | 27 | 997.2 |
| 20260505193056 | 77 | 288 | 17.4 | 25.2 | 0.00 | 0.00 | 0.00 | 28 | 997.1 |
| 20260505191608 | 77 | 290 | 19.1 | 24.3 | 0.00 | 0.00 | 0.00 | 27 | 997.1 |
| 20260505190053 | 76 | 252 | 18.2 | 23.5 | 0.00 | 0.00 | 0.00 | 30 | 997.2 |
| 20260505184552 | 76 | 259 | 19.1 | 28.7 | 0.00 | 0.00 | 0.00 | 30 | 997.2 |
| 20260505183051 | 76 | 259 | 20.0 | 29.5 | 0.00 | 0.00 | 0.00 | 30 | 997.4 |
| 20260505181552 | 76 | 279 | 21.7 | 29.5 | 0.00 | 0.00 | 0.00 | 31 | 997.7 |
| 20260505180053 | 77 | 269 | 18.2 | 26.9 | 0.00 | 0.00 | 0.00 | 31 | 997.9 |
| 20260505174552 | 76 | 302 | 16.5 | 22.6 | 0.00 | 0.00 | 0.00 | 31 | 998.0 |
| 20260505173055 | 76 | 286 | 16.5 | 24.3 | 0.00 | 0.00 | 0.00 | 31 | 998.0 |
| 20260505171550 | 75 | 291 | 17.4 | 22.6 | 0.00 | 0.00 | 0.00 | 31 | 998.0 |
| 20260505170104 | 75 | 317 | 18.2 | 26.1 | 0.00 | 0.00 | 0.00 | 30 | 998.1 |
| 20260505164547 | 75 | 286 | 20.9 | 26.9 | 0.00 | 0.00 | 0.00 | 31 | 997.9 |
| 20260505163044 | 75 | 275 | 20.0 | 24.3 | 0.00 | 0.00 | 0.00 | 29 | 997.9 |
| 20260505161542 | 75 | 290 | 21.7 | 26.1 | 0.00 | 0.00 | 0.00 | 29 | 997.8 |
| 20260505153036 | 73 | 280 | 17.4 | 25.2 | 0.00 | 0.00 | 0.00 | 29 | 997.4 |
| 20260505151549 | 73 | 277 | 20.9 | 26.9 | 0.00 | 0.00 | 0.00 | 29 | 997.2 |
| 20260505124510 | 69 | 230 | 12.2 | 13.9 | 0.00 | 0.00 | 0.00 | 33 | 996.1 |
| 20260505123004 | 68 | 229 | 11.3 | 13.0 | 0.00 | 0.00 | 0.00 | 33 | 995.9 |
| 20260505121503 | 69 | 227 | 11.3 | 13.0 | 0.00 | 0.00 | 0.00 | 32 | 995.8 |
| 20260505120100 | 69 | 217 | 11.3 | 13.9 | 0.00 | 0.00 | 0.00 | 30 | 995.8 |
| 20260505114558 | 69 | 212 | 10.4 | 12.2 | 0.00 | 0.00 | 0.00 | 31 | 995.5 |
| 20260505113057 | 70 | 200 | 8.7 | 9.6 | 0.00 | 0.00 | 0.00 | 30 | 995.4 |
| 20260505111559 | 71 | 205 | 9.6 | 10.4 | 0.00 | 0.00 | 0.00 | 27 | 995.4 |
| 20260505101601 | 69 | 252 | 8.7 | 12.2 | 0.00 | 0.00 | 0.00 | 32 | 995.2 |
| 20260505094546 | 71 | 250 | 10.4 | 12.2 | 0.00 | 0.00 | 0.00 | 31 | 995.2 |
| 20260505093046 | 71 | 252 | 11.3 | 13.0 | 0.00 | 0.00 | 0.00 | 31 | 995.3 |
| 20260505091545 | 71 | 232 | 11.3 | 14.8 | 0.00 | 0.00 | 0.00 | 32 | 995.3 |
| 20260505090055 | 72 | 245 | 12.2 | 14.8 | 0.00 | 0.00 | 0.00 | 31 | 995.2 |
| 20260505084548 | 73 | 259 | 12.2 | 14.8 | 0.00 | 0.00 | 0.00 | 29 | 995.1 |
| 20260505083039 | 74 | 242 | 10.4 | 13.0 | 0.00 | 0.00 | 0.00 | 30 | 995.2 |
| 20260505081543 | 74 | 238 | 11.3 | 13.9 | 0.00 | 0.00 | 0.00 | 28 | 995.2 |
| 20260505080034 | 76 | 236 | 11.3 | 17.4 | 0.00 | 0.00 | 0.00 | 28 | 995.4 |
| 20260505074536 | 76 | 235 | 12.2 | 17.4 | 0.00 | 0.00 | 0.00 | 28 | 995.6 |
| 20260505073038 | 75 | 219 | 10.4 | 15.6 | 0.00 | 0.00 | 0.00 | 28 | 995.4 |
| 20260505071531 | 74 | 177 | 7.8 | 12.2 | 0.00 | 0.00 | 0.00 | 30 | 995.7 |
| 20260505070032 | 74 | 246 | 9.6 | 12.2 | 0.00 | 0.00 | 0.00 | 30 | 995.7 |
| 20260505064529 | 75 | 246 | 9.6 | 15.6 | 0.00 | 0.00 | 0.00 | 29 | 995.6 |
| 20260505063029 | 75 | 242 | 13.0 | 15.6 | 0.00 | 0.00 | 0.00 | 27 | 995.5 |
| 20260505061531 | 75 | 207 | 10.4 | 14.8 | 0.00 | 0.00 | 0.00 | 29 | 995.7 |
| 20260505060033 | 74 | 190 | 7.0 | 7.8 | 0.00 | 0.00 | 0.00 | 30 | 995.8 |
| 20260505054535 | 75 | 183 | 6.1 | 7.0 | 0.00 | 0.00 | 0.00 | 30 | 996.2 |
| 20260505053023 | 76 | 228 | 5.2 | 9.6 | 0.00 | 0.00 | 0.00 | 27 | 996.1 |
| 20260505051523 | 76 | 229 | 10.4 | 13.0 | 0.00 | 0.00 | 0.00 | 27 | 996.2 |
| 20260505041528 | 78 | 227 | 6.1 | 8.7 | 0.00 | 0.00 | 0.00 | 24 | 996.4 |
| 20260505040026 | 78 | 230 | 11.3 | 13.9 | 0.00 | 0.00 | 0.00 | 24 | 996.4 |